THORAD AGENA D DEB, 5146

Orbit data source: Space-Track

THORAD AGENA D DEB, 5146 is space debris in SSO originally from a launch on Wed, 08 Apr 1970 UTC launched from the Air Force Western Test Range (AFWTR). Debris objects in space refer to the collection of defunct objects orbiting the Earth. Examples of debris include non-operational satellites, rocket bodies, and fragments generated from explosions, collisions, or faulty payload assembly.

Loading next visibility...
Identifier
5146, 1970-025JQ
Orbit
SSO
Country
Flag of USUS
Related business
Manufacturer
Unknown
Mission
Spacecraft
Bus & Motor
Unknown
Mass
Unknown
Launch date (UTC)
1970-04-08 (56 years ago)
Launch vehicle
Unknown
Launch site
Air Force Western Test Range (AFWTR)
Object type
Payload
Rocket body
Debris
Shape & HBR
Unknown shape, 0.1 m
Radar Cross Section
Small (<0.1 m²)

Expand to show TLE details & history
Last TLE update: 1 day ago

TLE from 1 day ago
0 THORAD AGENA D DEB
1 05146U 70025JQ  25352.47225876  .00000086  00000-0  16951-3 0  9997
2 05146 100.0543 206.5963 0043442 110.3403   7.3902 13.62706591764694
Epoch: 2025-12-18T11:20Z
TLE epoch observation values (Epoch: 2025-12-18T11:20:03.156Z)
Latitude
60.6742°
Longitude
147.55528°
Altitude
1,004.223 km
Speed
7.371 km/s
True Right ascension
02h 59m 34s
True Declination
60° 31' 55"
Sunlit
Object was in full shadow at epoch
Visualization orbit readout
Latitude
Unknown
Longitude
Unknown
Altitude
Unknown
Speed
Unknown
Apparent Right ascension
Unknown
Apparent Declination
Unknown
Sunlit
N/A
Visualization observer readout
Local Sidereal Time
14:18:17
Azimuth
Unknown
Elevation
Unknown
Doppler factor
Unknown
Orbital elements
Apogee altitude
1,055.328 km
Perigee altitude
991.022 km
Semi-major axis
7,401.312 km
Eccentricity
0.00434
Inclination
100.0543°
RAAN
206.5963°
Arg. of periapsis
110.3403°
True anomaly
7.45458°
Mean anomaly
7.3902°
Eccentric anomaly
7.42235°
Mean motion
3.40863 °/min
Orbital period
105.61 mins
BSTAR
0.00016951
Loading maneuver chart data...
Computing Atmospheric mass density...

Documentation

Showing up to 5 results
|